Location: Lecco
(45.8566°N, 9.3977°E)
Time: 04:14:47
(UTC+02:00)

Transit 4A - Pass Details

Date: 22 August 2020
Orbit: 863 x 982 km, 66.8° (Epoch: 23 September)

Event Time Altitude Azimuth Distance (km) Brightness Sun altitude
Rises 11:06:51 0° 288° (WNW) 3,572 10.6 44.9°
Reaches altitude 10° 11:11:04 10° 316° (NW) 2,661 10.0 45.4°
Maximum altitude 11:13:47 13° 342° (NNW) 2,469 9.9 45.8°
Drops below altitude 10° 11:16:32 10° 9° (N) 2,697 10.2 46.2°
Sets 11:20:53 0° 36° (NE) 3,668 11.0 46.7°
